This is the latest recevied weather packets stored in our database for station/object HB9TJR-3. If no packets are shown the sender has not sent any weather packets the latest 10 day(s).
| Time | Temp. | Humidity | Pressure | Rain* | Wind** | Luminosity | Snow |
|---|---|---|---|---|---|---|---|
| 1777767334 | 12.22° C | 69% | 867.8 hPa | 0 mm | - | - | - |
| 1777766376 | 12.22° C | 69% | 867.9 hPa | 0 mm | - | - | - |
| 1777765414 | 12.22° C | 67% | 868.1 hPa | 0 mm | - | - | - |
| 1777764454 | 12.22° C | 66% | 868 hPa | 0 mm | - | - | - |
| 1777763494 | 12.78° C | 64% | 868 hPa | 0 mm | - | - | - |
| 1777762534 | 12.78° C | 62% | 868.3 hPa | 0 mm | - | - | - |
| 1777761575 | 12.78° C | 63% | 868.4 hPa | 0 mm | - | - | - |
| 1777760614 | 12.78° C | 63% | 868.6 hPa | 0 mm | - | - | - |
| 1777759655 | 12.78° C | 61% | 868.5 hPa | 0 mm | - | - | - |
| 1777758694 | 12.78° C | 61% | 868.6 hPa | 0 mm | - | - | - |
| 1777757735 | 12.78° C | 61% | 868.6 hPa | 0 mm | - | - | - |
| 1777756774 | 12.78° C | 61% | 868.7 hPa | 0 mm | - | - | - |
| 1777755899 | 12.78° C | 62% | 868.8 hPa | 0 mm | - | - | - |
| 1777755815 | 12.78° C | 62% | 868.8 hPa | 0 mm | - | - | - |
| 1777754854 | 12.78° C | 64% | 868.9 hPa | 0 mm | - | - | - |
| 1777753895 | 12.78° C | 69% | 869.1 hPa | 0 mm | - | - | - |
| 1777752934 | 12.78° C | 72% | 869.2 hPa | 0 mm | - | - | - |
| 1777751975 | 12.22° C | 72% | 869.1 hPa | 0 mm | - | - | - |
| 1777751014 | 12.22° C | 72% | 869 hPa | 0 mm | - | - | - |
| 1777750055 | 12.78° C | 72% | 868.9 hPa | 0 mm | - | - | - |
| 1777749096 | 12.78° C | 72% | 868.8 hPa | 0 mm | - | - | - |
| 1777748134 | 13.33° C | 71% | 868.7 hPa | 0 mm | - | - | - |
| 1777747175 | 13.33° C | 69% | 868.6 hPa | 0 mm | - | - | - |
| 1777746214 | 13.89° C | 68% | 868.6 hPa | 0 mm | - | - | - |
| 1777744294 | 13.89° C | 62% | 868.5 hPa | 0 mm | - | - | - |
* Rain latest hour (hover to see other rain measurements)
** Current wind speed in m/s (hover to see current wind gust speed)